CW7104 Weather Reports


time (UTC)temp
C
wind
direction
speed
KPH
gust
KPH
rain 1hr
cm
rain 24hr
cm
rain mn
cm
humidity
%
barometer
mb
20260506015405 10 42 3.2 8.0 0.00 0.00 0.00 83 1008.0
20260506014405 10 32 0.0 0.0 0.00 0.00 0.00 83 1008.0
20260506013905 10 36 0.0 0.0 0.00 0.00 0.00 83 1008.0
20260506013404 10 29 1.6 4.8 0.00 0.00 0.00 83 1007.9
20260506012905 10 15 0.0 4.8 0.00 0.00 0.00 83 1007.7
20260506012405 10 19 6.4 12.9 0.00 0.00 0.00 83 1006.8
20260506011904 10 34 4.8 11.3 0.00 0.00 0.00 83 1007.1
20260506010905 10 9 3.2 11.3 0.00 0.00 0.00 83 1008.0
20260506010406 10 20 1.6 14.5 0.00 0.00 0.00 83 1008.1
20260506005904 10 25 4.8 12.9 0.00 0.00 0.00 83 1008.1
20260506005404 10 19 4.8 11.3 0.00 0.00 0.00 83 1008.0
20260506004905 10 20 4.8 9.7 0.00 0.00 0.00 83 1008.1
20260506004405 10 351 0.0 9.7 0.00 0.00 0.00 83 1008.0
20260506003904 10 16 0.0 8.0 0.00 0.00 0.00 83 1007.8
20260506003404 10 13 4.8 9.7 0.00 0.00 0.00 83 1007.6
20260506002904 10 46 0.0 8.0 0.00 0.00 0.00 83 1007.7
20260506002405 10 83 3.2 11.3 0.00 0.00 0.00 83 1007.7
20260506001905 10 26 1.6 12.9 0.00 0.00 0.00 83 1007.8
20260506001405 11 18 3.2 11.3 0.00 0.00 0.00 83 1007.6
20260506000406 11 18 1.6 8.0 0.00 0.00 0.00 83 1007.6
20260505235905 11 7 0.0 0.0 0.00 0.00 0.00 83 1007.7
20260505235404 11 21 1.6 9.7 0.00 0.00 0.00 83 1007.7
20260505234404 11 0 3.2 11.3 0.00 0.00 0.00 83 1007.6
20260505233405 11 353 0.0 11.3 0.00 0.00 0.00 83 1008.4
20260505232904 11 14 0.0 1.6 0.00 0.00 0.00 83 1008.2
20260505232405 11 10 1.6 11.3 0.00 0.00 0.00 83 1008.1
20260505231905 11 17 4.8 9.7 0.00 0.00 0.00 83 1008.1
20260505231404 11 19 3.2 11.3 0.00 0.00 0.00 83 1008.1
20260505230905 11 7 3.2 14.5 0.00 0.00 0.00 83 1008.0
20260505230405 11 12 3.2 12.9 0.00 0.00 0.00 83 1007.9
20260505224904 11 12 1.6 14.5 0.00 0.00 0.00 83 1008.2
20260505224404 11 21 1.6 8.0 0.00 0.00 0.00 83 1008.2
20260505223905 12 13 1.6 9.7 0.00 0.00 0.00 83 1008.2
20260505223404 12 354 1.6 8.0 0.00 0.00 0.00 83 1008.1
20260505222404 12 33 0.0 3.2 0.00 0.00 0.00 83 1007.9
20260505221905 13 336 0.0 8.0 0.00 0.00 0.00 83 1007.9
20260505221404 13 347 0.0 0.0 0.00 0.00 0.00 83 1007.9
20260505220904 13 342 0.0 4.8 0.00 0.00 0.00 83 1007.8
20260505220405 13 345 3.2 11.3 0.00 0.00 0.00 83 1007.7
20260505215905 13 338 1.6 4.8 0.00 0.00 0.00 83 1007.6
20260505215405 13 349 1.6 11.3 0.00 0.00 0.00 83 1007.6
20260505214904 14 323 1.6 12.9 0.00 0.00 0.00 83 1007.5
20260505214405 15 321 3.2 19.3 0.00 0.00 0.00 83 1007.4
20260505213405 16 313 1.6 11.3 0.00 0.00 0.00 83 1007.2
20260505212404 16 255 0.0 0.0 0.00 0.00 0.00 83 1007.2
20260505211904 16 254 0.0 9.7 0.00 0.00 0.00 83 1007.1
20260505211404 16 180 0.0 9.7 0.00 0.00 0.00 83 1007.1
20260505210905 16 216 1.6 11.3 0.00 0.00 0.00 83 1007.0
20260505210404 16 246 1.6 9.7 0.00 0.00 0.00 83 1007.0
20260505205905 16 232 1.6 4.8 0.00 0.00 0.00 83 1007.0
20260505204904 16 192 1.6 9.7 0.00 0.00 0.00 83 1007.1
20260505204404 16 180 0.0 3.2 0.00 0.00 0.00 83 1007.2
20260505203904 16 250 1.6 8.0 0.00 0.00 0.00 83 1007.2
20260505203404 16 210 1.6 9.7 0.00 0.00 0.00 83 1007.3
20260505202905 16 210 3.2 11.3 0.00 0.00 0.00 83 1007.3
20260505201904 16 169 1.6 8.0 0.00 0.00 0.00 83 1007.5
20260505201404 16 171 0.0 0.0 0.00 0.00 0.00 83 1007.5
20260505200905 16 236 1.6 8.0 0.00 0.00 0.00 83 1007.3
20260505200404 16 179 0.0 9.7 0.00 0.00 0.00 83 1007.3
20260505195905 17 168 0.0 1.6 0.00 0.00 0.00 83 1007.3
20260505195405 16 178 0.0 0.0 0.00 0.00 0.00 83 1007.3
20260505194904 16 178 0.0 8.0 0.00 0.00 0.00 83 1007.3
20260505194404 16 176 0.0 4.8 0.00 0.00 0.00 83 1007.3
20260505193904 17 189 0.0 0.0 0.00 0.00 0.00 83 1007.5
20260505193404 17 144 1.6 9.7 0.00 0.00 0.00 83 1007.6
20260505192905 17 227 0.0 4.8 0.00 0.00 0.00 83 1007.7
20260505192404 17 160 1.6 4.8 0.00 0.00 0.00 83 1007.7
20260505191904 17 189 3.2 9.7 0.00 0.00 0.00 83 1007.7
20260505191405 17 162 3.2 12.9 0.00 0.00 0.00 83 1007.6
20260505190904 16 165 3.2 9.7 0.00 0.00 0.00 83 1007.7
20260505190405 16 155 3.2 11.3 0.00 0.00 0.00 83 1007.9
20260505184904 16 208 1.6 9.7 0.00 0.00 0.00 83 1008.3
20260505184404 16 186 1.6 9.7 0.00 0.00 0.00 83 1008.4
20260505183905 16 289 0.0 8.0 0.00 0.00 0.00 83 1008.3
20260505182905 16 206 1.6 8.0 0.00 0.00 0.00 83 1008.4
20260505182404 16 254 3.2 12.9 0.00 0.00 0.00 83 1008.4
20260505181904 16 152 1.6 12.9 0.00 0.00 0.00 83 1008.4
20260505181404 16 208 3.2 11.3 0.00 0.00 0.00 83 1008.3
20260505180904 16 140 1.6 12.9 0.00 0.00 0.00 83 1008.4
20260505180404 16 185 3.2 14.5 0.00 0.00 0.00 83 1008.4
20260505175904 16 198 3.2 14.5 0.00 0.00 0.00 83 1008.4
20260505175404 16 193 3.2 9.7 0.00 0.00 0.00 83 1008.5
20260505174905 16 220 3.2 11.3 0.00 0.00 0.00 83 1008.6
20260505174404 16 198 4.8 12.9 0.00 0.00 0.00 83 1008.6
20260505173904 16 149 1.6 9.7 0.00 0.00 0.00 83 1008.6
20260505173404 15 174 3.2 11.3 0.00 0.00 0.00 83 1008.8
20260505172905 15 148 1.6 11.3 0.00 0.00 0.00 83 1008.9
20260505172404 15 213 0.0 1.6 0.00 0.00 0.00 83 1008.9
20260505171904 15 155 3.2 11.3 0.00 0.00 0.00 83 1008.9
20260505171404 15 176 0.0 0.0 0.00 0.00 0.00 83 1008.9
20260505170904 15 185 0.0 0.0 0.00 0.00 0.00 83 1008.9
20260505170404 15 158 0.0 8.0 0.00 0.00 0.00 83 1008.8
20260505165904 15 166 0.0 8.0 0.00 0.00 0.00 83 1008.8
20260505164904 15 188 1.6 9.7 0.00 0.00 0.00 82 1008.9
20260505164405 15 175 1.6 11.3 0.00 0.00 0.00 82 1009.1
20260505163404 15 168 3.2 14.5 0.00 0.00 0.00 82 1009.1
20260505162904 15 183 0.0 11.3 0.00 0.00 0.00 82 1009.1
20260505162404 15 190 4.8 16.1 0.00 0.00 0.00 82 1009.1
20260505161904 15 152 8.0 19.3 0.00 0.00 0.00 82 1009.1
20260505161405 15 171 3.2 9.7 0.00 0.00 0.00 82 1009.1
20260505160904 15 148 1.6 11.3 0.00 0.00 0.00 82 1009.2
20260505160404 15 158 0.0 0.0 0.00 0.00 0.00 82 1009.1
20260505152904 15 187 0.0 0.0 0.00 0.00 0.00 81 1009.4
20260505151404 15 256 1.6 8.0 0.00 0.00 0.00 80 1009.7
20260505150904 15 234 3.2 14.5 0.00 0.00 0.00 79 1009.7
20260505150404 16 245 3.2 11.3 0.00 0.00 0.00 78 1009.7
20260505140404 18 140 0.0 0.0 0.00 0.00 0.00 64 1008.1
20260505124904 17 165 0.0 0.0 0.00 0.00 0.00 63 1008.0
20260505124404 17 165 0.0 0.0 0.00 0.00 0.00 64 1008.0
20260505123904 17 175 0.0 0.0 0.00 0.00 0.00 64 1007.9
20260505123403 17 149 0.0 0.0 0.00 0.00 0.00 64 1007.8
20260505122404 17 147 0.0 0.0 0.00 0.00 0.00 65 1007.9
20260505121903 17 144 0.0 0.0 0.00 0.00 0.00 65 1007.8
20260505121404 17 144 0.0 0.0 0.00 0.00 0.00 65 1007.9
20260505120904 17 144 0.0 0.0 0.00 0.00 0.00 65 1008.0
20260505120403 17 144 0.0 0.0 0.00 0.00 0.00 65 1008.0
20260505115904 17 144 0.0 0.0 0.00 0.00 0.00 65 1008.0
20260505115404 17 144 0.0 0.0 0.00 0.00 0.00 64 1008.0
20260505114904 17 144 0.0 0.0 0.00 0.00 0.00 64 1008.0
20260505114403 17 144 0.0 0.0 0.00 0.00 0.00 64 1007.9
20260505113904 17 144 0.0 0.0 0.00 0.00 0.00 63 1007.8
20260505113404 17 144 0.0 0.0 0.00 0.00 0.00 63 1007.9
20260505112904 17 144 0.0 0.0 0.00 0.00 0.00 63 1007.8
20260505112403 17 144 0.0 0.0 0.00 0.00 0.00 62 1007.7
20260505111904 17 143 0.0 0.0 0.00 0.00 0.00 62 1007.5
20260505110404 17 142 0.0 0.0 0.00 0.00 0.00 61 1007.4
20260505101404 18 221 0.0 0.0 0.00 0.00 0.00 60 1007.3
20260505100903 18 220 0.0 1.6 0.00 0.00 0.00 60 1007.2
20260505095903 18 190 3.2 12.9 0.00 0.00 0.00 60 1007.0
20260505095403 18 173 0.0 12.9 0.00 0.00 0.00 60 1007.0
20260505094904 18 198 0.0 0.0 0.00 0.00 0.00 60 1007.1
20260505094404 18 178 0.0 0.0 0.00 0.00 0.00 60 1007.1
20260505093903 18 171 0.0 0.0 0.00 0.00 0.00 60 1007.1
20260505092903 18 199 0.0 0.0 0.00 0.00 0.00 60 1007.3
20260505091903 18 171 0.0 0.0 0.00 0.00 0.00 60 1007.3
20260505090405 17 155 0.0 0.0 0.00 0.00 0.00 61 1007.4
20260505085905 17 201 0.0 0.0 0.00 0.00 0.00 61 1007.3
20260505085405 17 250 1.6 16.1 0.00 0.00 0.00 61 1007.3
20260505084905 17 164 0.0 0.0 0.00 0.00 0.00 61 1007.2
20260505084405 17 233 1.6 11.3 0.00 0.00 0.00 61 1007.2
20260505083905 18 188 0.0 3.2 0.00 0.00 0.00 60 1007.2
20260505083405 18 206 0.0 1.6 0.00 0.00 0.00 60 1007.2
20260505082905 18 243 0.0 0.0 0.00 0.00 0.00 60 1007.3
20260505081905 18 231 0.0 4.8 0.00 0.00 0.00 59 1007.2
20260505080405 18 179 0.0 1.6 0.00 0.00 0.00 58 1007.1
20260505075905 18 217 1.6 12.9 0.00 0.00 0.00 58 1007.1
20260505075405 18 229 3.2 16.1 0.00 0.00 0.00 58 1007.0
20260505074905 18 174 3.2 14.5 0.00 0.00 0.00 57 1007.1
20260505074405 18 176 4.8 12.9 0.00 0.00 0.00 57 1007.1
20260505073905 18 166 0.0 16.1 0.00 0.00 0.00 57 1007.2
20260505073405 18 168 1.6 16.1 0.00 0.00 0.00 57 1007.1
20260505072905 18 234 4.8 12.9 0.00 0.00 0.00 56 1007.1
20260505072405 18 187 3.2 12.9 0.00 0.00 0.00 56 1007.1
20260505071905 18 178 4.8 19.3 0.00 0.00 0.00 56 1007.2
20260505071405 18 239 1.6 16.1 0.00 0.00 0.00 55 1007.2
20260505070905 18 350 1.6 12.9 0.00 0.00 0.00 55 1007.2
20260505065905 18 256 6.4 12.9 0.00 0.00 0.00 56 1007.2
20260505065405 18 172 4.8 14.5 0.00 0.00 0.00 56 1007.2
20260505064905 18 239 6.4 14.5 0.00 0.00 0.00 55 1007.2
20260505064405 18 197 1.6 14.5 0.00 0.00 0.00 55 1007.2
20260505063405 19 222 6.4 19.3 0.00 0.00 0.00 55 1007.0
20260505062905 19 298 1.6 12.9 0.00 0.00 0.00 54 1007.0
20260505062405 19 207 3.2 24.1 0.00 0.00 0.00 53 1006.9
20260505061905 19 176 9.7 20.9 0.00 0.00 0.00 53 1006.9
20260505061405 19 159 11.3 22.5 0.00 0.00 0.00 53 1006.8
20260505060906 19 223 4.8 22.5 0.00 0.00 0.00 53 1006.8
20260505060406 19 239 9.7 22.5 0.00 0.00 0.00 53 1006.8
20260505055405 19 165 4.8 16.1 0.00 0.00 0.00 53 1006.7
20260505054905 19 205 6.4 16.1 0.00 0.00 0.00 53 1006.8
20260505054405 19 186 3.2 14.5 0.00 0.00 0.00 53 1006.7
20260505053905 19 254 8.0 16.1 0.00 0.00 0.00 52 1006.6
20260505052905 19 179 8.0 16.1 0.00 0.00 0.00 52 1006.6
20260505052405 19 161 4.8 14.5 0.00 0.00 0.00 52 1006.6
20260505051905 19 194 3.2 12.9 0.00 0.00 0.00 52 1006.6
20260505051405 19 160 8.0 14.5 0.00 0.00 0.00 52 1006.6
20260505050905 20 196 3.2 14.5 0.00 0.00 0.00 51 1006.6
20260505050405 20 245 1.6 12.9 0.00 0.00 0.00 51 1006.6
20260505041405 20 308 8.0 14.5 0.00 0.00 0.00 48 1006.5
20260505040905 20 186 8.0 14.5 0.00 0.00 0.00 48 1006.5
20260505040405 21 156 6.4 14.5 0.00 0.00 0.00 48 1006.5
20260505035905 21 218 4.8 16.1 0.00 0.00 0.00 48 1006.6
20260505034905 21 227 4.8 20.9 0.00 0.00 0.00 47 1006.4
20260505034405 20 153 8.0 19.3 0.00 0.00 0.00 48 1006.4
20260505033405 20 178 4.8 19.3 0.00 0.00 0.00 49 1006.6
20260505032905 20 295 0.0 9.7 0.00 0.00 0.00 49 1006.7
20260505032404 21 185 3.2 14.5 0.00 0.00 0.00 48 1006.9
20260505031906 21 235 1.6 12.9 0.00 0.00 0.00 48 1006.9
20260505031405 21 182 1.6 12.9 0.00 0.00 0.00 48 1006.9
20260505030905 21 178 0.0 11.3 0.00 0.00 0.00 48 1007.0
20260505030405 21 209 0.0 12.9 0.00 0.00 0.00 47 1006.9
20260505025406 21 160 0.0 12.9 0.00 0.00 0.00 47 1006.8
20260505024904 21 174 4.8 14.5 0.00 0.00 0.00 46 1006.8
20260505024405 21 274 8.0 14.5 0.00 0.00 0.00 46 1006.8
20260505022405 21 194 3.2 16.1 0.00 0.00 0.00 46 1006.6
20260505021905 21 203 4.8 14.5 0.00 0.00 0.00 45 1006.5
20260505020905 21 219 4.8 12.9 0.00 0.00 0.00 45 1006.4
20260505020404 22 169 4.8 14.5 0.00 0.00 0.00 45 1006.4
20260505015905 22 183 0.0 11.3 0.00 0.00 0.00 45 1006.3